Temp
75 78 67 70 65 65 66 63 66 65 70 70 73 70 73 73 70 70 68 64 64 65
76 75 72 72 71 69 65 67 70 69 67 71 71 70 72 71 71 69 66 63 63 63
77 77 77 75 74 73 72 68 66 69 70 72 73 73 71 69 72 70 69 65 66 62
77 78 77 77 77 75 71 74 68 63 63 64 70 70 72 71 68 67 65 67 65 63
77 78 77 77 77 78 75 74 70 66 64 63 64 67 72 73 72 72 68 68 70 66
76 76 76 76 75 78 74 77 77 71 66 65 64 66 70 72 75 75 76 75 74 72
75 76 76 77 78 79 80 78 78 77 76 74 72 73 76 76 75 76 76 76 77 78
76 77 78 77 78 78 79 80 80 79 78 78 78 78 75 76 76 74 74 75 78 77
78 78 77 77 77 77 77 79 79 79 79 78 77 50 56 71 76 76 75 74 73 71
78 77 76 78 77 76 75 76 77 78 78 76 72 49 52 59 78 76 75 75 75 78
79 78 78 77 76 74 74 74 75 76 76 76 69 49 51 57 77 76 76 76 76 76
81 78 77 76 74 74 74 74 74 76 75 75 72 48 48 59 76 75 74 76 75 76
82 79 77 76 74 74 75 75 79 76 76 65 74 45 46 56 80 73 76 73 72 53
81 78 77 76 74 73 74 76 74 75 75 75 73 64 44 46 78 78 77 77 75 76
MSLP
1011.54 1011.15 1011.84 1011.78 1011.88 1011.92 1011.96 1012.23 1012.10 1012.10 1011.89 1011.94 1011.98 1012.28 1012.33 1012.93 1013.50 1014.05 1014.85 1014.90 1016.32 1017.01
1011.63 1011.60 1011.78 1011.93 1011.94 1012.15 1012.27 1012.40 1012.36 1012.48 1012.49 1012.51 1012.54 1012.79 1012.95 1013.30 1013.72 1014.54 1015.64 1016.39 1017.06 1017.52
1011.62 1011.61 1011.72 1011.93 1012.08 1012.14 1012.22 1012.49 1012.74 1012.84 1012.91 1012.96 1013.07 1013.30 1013.52 1013.86 1014.28 1015.02 1015.89 1016.68 1017.06 1017.75
1011.70 1011.73 1011.88 1011.91 1011.99 1012.31 1012.62 1012.66 1012.96 1013.26 1013.45 1013.60 1013.66 1013.87 1013.89 1014.05 1014.73 1015.13 1015.83 1016.62 1017.11 1017.86
1011.88 1011.88 1012.03 1012.12 1012.27 1012.37 1012.66 1013.04 1013.38 1013.72 1013.89 1014.15 1014.28 1014.35 1014.29 1014.47 1014.64 1014.82 1015.57 1016.05 1016.62 1017.44
1012.06 1012.10 1012.22 1012.47 1012.67 1012.53 1012.92 1013.02 1013.24 1013.90 1014.26 1014.43 1014.69 1014.81 1014.67 1014.66 1014.77 1015.04 1015.06 1015.81 1016.37 1017.11
1012.12 1012.33 1012.45 1012.58 1012.71 1012.79 1012.86 1013.12 1013.35 1013.63 1014.08 1014.38 1014.52 1014.66 1014.57 1014.68 1015.02 1015.16 1015.52 1015.95 1016.21 1016.83
1012.05 1012.39 1012.59 1012.76 1012.93 1013.10 1013.23 1013.27 1013.49 1013.78 1014.03 1014.34 1014.50 1014.68 1014.94 1015.00 1015.27 1015.66 1016.13 1016.43 1016.65 1017.14
1011.74 1012.14 1012.60 1012.92 1013.16 1013.37 1013.55 1013.62 1013.72 1013.86 1014.11 1014.50 1015.26 1015.67 1015.68 1015.71 1015.83 1015.94 1016.22 1016.65 1017.50 1018.03
1011.49 1011.90 1012.45 1012.86 1013.13 1013.40 1013.76 1014.01 1014.13 1014.34 1014.60 1015.08 1015.93 1016.44 1016.36 1016.26 1016.30 1016.50 1016.85 1017.21 1017.56 1017.73
1011.11 1011.57 1012.15 1012.68 1013.14 1013.67 1014.02 1014.16 1014.39 1014.67 1015.03 1015.51 1016.43 1016.65 1016.72 1016.73 1016.67 1016.80 1017.04 1017.30 1017.65 1017.97
1010.60 1011.22 1011.84 1012.37 1013.04 1013.64 1014.04 1014.34 1014.61 1014.82 1015.23 1015.59 1016.48 1017.11 1017.26 1017.23 1017.08 1017.20 1017.39 1017.59 1017.88 1018.14
1010.08 1010.81 1011.54 1012.16 1012.87 1013.52 1013.92 1014.18 1014.28 1014.84 1015.27 1015.69 1016.12 1017.10 1017.38 1017.47 1016.80 1017.33 1017.46 1018.05 1018.54 1018.98
1009.83 1010.57 1011.26 1012.01 1012.77 1013.35 1013.69 1013.72 1014.30 1014.63 1015.19 1015.62 1016.10 1017.00 1017.54 1017.73 1017.09 1017.15 1017.39 1017.70 1018.48 1019.02
Wind_Speed
8 6 5 5 4 4 6 4 7 6 9 9 9 10 12 10 8 11 9 13 5 6
6 7 5 8 8 6 5 4 6 6 6 8 11 9 11 8 11 11 11 9 7 6
6 6 6 5 7 7 4 5 5 7 5 7 9 11 11 9 11 13 10 7 11 8
5 6 6 6 7 8 7 6 7 6 6 5 6 6 9 12 9 10 8 10 11 9
6 6 7 7 8 9 10 10 10 7 6 4 3 2 4 8 9 12 10 10 13 12
6 7 7 8 6 10 8 10 12 12 9 6 4 4 7 7 10 10 11 11 12 12
7 8 7 7 7 8 9 12 11 12 12 11 8 8 11 11 11 11 11 10 11 11
8 8 8 7 7 8 8 9 11 12 11 12 10 7 10 11 11 12 12 11 10 8
10 10 9 8 8 8 9 9 9 9 10 11 9 9 10 10 9 10 10 10 10 9
10 11 10 9 8 8 8 8 9 10 10 9 9 6 9 5 9 10 9 9 8 8
12 12 11 11 10 8 7 7 7 7 7 8 6 5 6 4 7 6 6 6 5 5
12 13 13 12 11 8 8 7 7 7 7 6 7 6 4 4 6 6 5 5 4 4
13 13 13 13 11 10 8 8 7 7 6 4 7 7 6 5 5 7 6 5 5 3
13 13 13 12 11 10 9 9 8 8 7 7 7 9 9 8 5 7 7 7 7 7
Wind_Direction
31 52 68 58 97 97 88 58 46 74 108 100 111 124 137 134 120 120 109 101 91 118
56 40 64 76 85 62 69 68 53 78 117 104 113 127 128 118 119 107 108 116 139 107
77 52 57 81 83 77 86 84 51 74 92 108 97 95 112 109 120 117 129 130 135 133
88 70 73 68 64 79 86 102 95 70 73 60 76 77 103 109 116 112 130 141 138 129
103 92 78 75 77 86 106 115 113 111 104 96 89 81 103 129 140 133 148 151 141 140
117 114 91 89 77 85 105 112 127 126 121 120 125 172 125 132 127 128 127 138 141 158
138 134 113 105 102 94 89 102 105 116 130 140 152 122 120 123 118 118 121 136 137 151
147 144 142 126 117 106 104 104 109 110 110 115 121 105 110 102 107 111 114 112 109 93
161 154 153 148 134 131 124 119 117 112 105 93 85 31 50 116 115 112 109 105 105 111
164 165 161 163 160 147 141 134 125 122 115 104 101 78 67 40 117 121 122 124 130 134
171 172 169 169 166 159 156 156 151 142 128 130 103 76 67 60 111 114 113 118 124 121
174 173 176 177 170 171 168 165 169 167 161 157 140 145 159 239 165 136 126 117 114 127
175 174 179 181 178 176 182 181 185 179 181 134 159 170 190 229 162 150 148 151 136 355
175 176 177 176 174 175 187 180 199 188 183 187 197 165 188 227 204 160 172 165 173 174